Total_Precipitation_Accumulation
0.00 0.00 0.00 0.00 0.00 0.00 0.00 0.13 0.33 0.59 0.14 0.32 0.13 0.16 0.51 0.07 0.44 0.26 0.29 0.12 0.22 0.15 0.22 0.27 0.35 0.41 0.33 0.34 0.10 0.08 0.09 0.07 0.10 0.28 0.60 1.28 0.32 0.54 0.51 0.19 0.19 0.25 0.20 0.22 0.27 0.30 0.44 0.33 0.44 0.56 0.99 1.15 1.77 1.79 2.16 2.50 1.66 1.54 1.60 1.69 2.58 1.39 1.36 0.89 1.07 0.80 0.67 0.55 0.57 0.65 0.64 0.59 0.53 0.59 0.59 0.43 0.30 0.38 0.24 0.20 0.20 0.25 0.34 0.40 0.45 0.35 0.49 0.41 0.52 0.43 0.56 0.80 0.62 0.61 0.49 0.42 0.46
0.00 0.01 0.00 0.00 0.00 0.00 0.24 0.20 0.45 0.17 0.14 0.15 0.22 0.22 0.48 0.17 0.08 0.49 0.22 0.11 0.34 0.38 0.47 0.16 0.27 0.13 0.10 0.09 0.04 0.21 0.19 0.13 0.22 0.32 0.40 0.72 0.69 0.54 0.36 0.16 0.22 0.11 0.06 0.11 0.12 0.47 0.20 0.20 0.45 0.48 1.00 1.82 1.82 1.75 2.12 1.80 2.31 1.79 1.58 1.82 2.65 1.74 1.37 1.11 1.16 1.06 0.76 0.79 0.77 0.76 0.63 0.62 0.65 0.69 0.62 0.47 0.54 0.30 0.31 0.41 0.41 0.37 0.39 0.46 0.38 0.46 0.60 0.60 0.58 0.41 0.82 0.95 0.77 0.74 0.66 0.60 0.87
0.00 0.00 0.00 0.00 0.00 0.01 0.07 0.12 0.32 0.18 0.49 0.32 0.35 0.25 0.32 0.39 0.32 0.22 0.29 0.19 0.07 0.14 0.03 0.15 0.07 0.11 0.44 0.21 0.25 0.31 0.46 0.40 0.15 0.34 0.57 0.29 0.26 0.44 0.26 0.20 0.08 0.09 0.08 0.15 0.11 0.33 0.16 0.16 0.26 0.49 0.47 1.34 1.71 1.35 1.49 2.43 1.40 1.30 1.96 1.98 2.24 1.48 2.23 1.24 1.07 1.02 0.94 0.99 1.01 1.21 1.11 1.00 0.95 0.85 0.58 0.76 0.44 0.65 0.62 0.51 0.35 0.39 0.49 0.48 0.47 0.45 0.52 0.38 0.41 0.72 0.60 1.24 1.35 1.00 1.35 0.84 1.00
0.04 0.01 0.02 0.02 0.05 0.00 0.05 0.31 0.15 0.45 0.43 0.28 0.31 0.58 0.36 0.11 0.21 0.09 0.52 0.39 0.22 0.03 0.03 0.00 0.01 0.03 0.04 0.05 0.08 0.03 0.11 0.20 0.15 0.11 0.44 0.38 0.16 0.15 0.10 0.15 0.15 0.03 0.06 0.10 0.06 0.19 0.28 0.31 0.35 0.28 0.42 1.11 1.39 1.98 1.38 1.34 2.66 1.89 1.96 2.43 2.01 2.40 1.58 1.20 1.65 0.90 1.02 0.88 0.77 0.89 0.73 0.72 0.70 0.54 0.67 0.67 0.68 0.53 0.38 0.50 0.59 0.47 0.35 0.40 0.58 0.73 0.44 0.55 0.82 0.91 0.58 0.45 1.26 1.23 1.08 1.37 1.00
0.05 0.11 0.06 0.04 0.02 0.15 0.06 0.32 0.31 0.21 0.32 0.64 0.57 0.55 0.17 0.17 0.35 0.15 0.21 0.17 0.12 0.26 0.13 0.03 0.00 0.02 0.01 0.03 0.05 0.09 0.18 0.15 0.12 0.09 0.27 0.26 0.06 0.12 0.11 0.10 0.11 0.08 0.10 0.07 0.13 0.10 0.18 0.23 0.26 0.34 0.53 1.21 1.92 1.55 1.40 1.76 1.80 2.43 2.66 3.16 2.34 1.70 1.70 1.34 1.23 1.21 1.04 0.82 0.79 0.74 0.58 0.59 0.70 0.65 0.87 0.75 0.62 0.84 1.06 0.70 0.58 0.36 0.48 0.45 0.38 0.52 0.80 0.72 0.79 0.65 0.53 0.45 0.55 1.10 1.45 1.63 1.90
0.01 0.00 0.02 0.02 0.09 0.24 0.06 0.14 0.19 0.29 0.56 0.42 0.35 0.28 0.10 0.19 0.04 0.01 0.04 0.03 0.03 0.02 0.05 0.03 0.03 0.01 0.00 0.01 0.01 0.04 0.09 0.22 0.26 0.15 0.20 0.32 0.17 0.17 0.07 0.04 0.06 0.05 0.18 0.12 0.10 0.09 0.14 0.12 0.12 0.29 0.45 0.90 1.52 1.54 1.61 1.49 1.78 1.83 2.13 2.69 3.58 2.43 2.00 1.42 1.93 1.31 1.29 1.32 1.38 0.94 0.72 0.78 0.64 0.75 0.76 0.80 0.78 0.84 0.81 0.80 1.20 1.21 0.80 0.62 0.57 0.64 0.70 0.59 0.57 0.79 0.54 0.60 0.71 0.64 0.93 1.05 1.32
0.01 0.01 0.04 0.05 0.04 0.04 0.43 0.39 0.56 0.57 0.26 0.06 0.08 0.11 0.34 0.05 0.05 0.03 0.01 0.01 0.02 0.03 0.20 0.00 0.00 0.09 0.00 0.02 0.01 0.05 0.02 0.06 0.13 0.13 0.12 0.12 0.10 0.09 0.10 0.05 0.02 0.02 0.06 0.12 0.08 0.08 0.13 0.09 0.11 0.36 0.48 1.32 1.88 2.16 1.67 1.29 1.72 1.49 2.04 1.90 1.75 2.57 2.63 1.60 1.47 1.68 1.87 1.54 1.25 1.05 1.07 1.04 0.88 0.96 0.92 1.38 1.56 1.57 1.63 1.41 1.17 1.25 1.36 1.16 0.90 0.85 0.81 0.64 0.57 0.50 0.53 0.44 0.54 0.64 0.84 0.91 0.97
0.02 0.04 0.17 0.17 0.50 0.32 0.31 0.39 0.40 0.16 0.24 0.04 0.06 0.02 0.02 0.04 0.02 0.01 0.06 0.02 0.06 0.03 0.06 0.06 0.00 0.00 0.05 0.01 0.03 0.04 0.02 0.04 0.05 0.13 0.10 0.06 0.08 0.03 0.05 0.03 0.03 0.03 0.04 0.02 0.02 0.07 0.09 0.05 0.17 0.31 0.73 1.38 1.11 0.80 1.32 1.16 1.51 1.36 2.03 1.86 1.67 2.18 2.39 1.96 2.66 1.57 1.08 1.23 1.26 1.29 1.26 1.52 1.55 1.56 1.67 1.36 1.06 0.98 0.83 0.92 1.22 1.15 0.94 0.83 0.73 0.72 0.77 0.67 0.59 0.73 0.63 0.55 0.57 0.62 0.64 0.62 0.68
0.16 0.12 0.19 0.25 0.32 0.26 0.20 0.20 0.16 0.09 0.08 0.13 0.13 0.03 0.02 0.02 0.05 0.07 0.08 0.06 0.09 0.09 0.15 0.12 0.06 0.02 0.04 0.02 0.05 0.04 0.04 0.05 0.06 0.07 0.04 0.08 0.09 0.06 0.13 0.07 0.06 0.04 0.07 0.03 0.07 0.09 0.08 0.08 0.18 0.32 1.34 1.46 2.12 1.26 1.06 1.28 1.03 1.06 1.52 1.40 1.41 1.73 2.09 1.47 1.90 1.84 2.65 3.03 3.15 2.90 2.34 2.12 1.99 1.84 1.67 1.44 1.46 1.22 1.18 1.42 1.11 0.93 1.09 0.93 0.90 0.77 0.84 0.78 0.72 0.80 0.71 0.53 0.57 0.56 0.59 0.65 0.78
0.05 0.02 0.14 0.09 0.07 0.16 0.11 0.11 0.05 0.06 0.06 0.11 0.12 0.12 0.11 0.08 0.09 0.03 0.07 0.09 0.11 0.13 0.10 0.05 0.07 0.05 0.07 0.07 0.11 0.10 0.15 0.08 0.06 0.08 0.08 0.09 0.07 0.08 0.05 0.03 0.04 0.05 0.06 0.06 0.05 0.08 0.04 0.12 0.22 0.42 0.98 0.84 1.06 1.33 1.43 0.76 0.96 1.03 0.97 0.81 1.09 1.25 1.03 1.51 1.23 1.27 1.47 1.33 1.41 1.47 1.53 1.64 1.65 1.93 1.85 1.81 1.80 1.67 1.50 1.64 1.55 1.38 1.55 1.36 1.21 1.09 0.97 0.91 1.03 0.87 0.79 0.69 0.63 0.63 0.69 0.67 0.61
0.03 0.01 0.01 0.13 0.12 0.08 0.11 0.13 0.10 0.02 0.01 0.01 0.01 0.00 0.02 0.05 0.06 0.14 0.13 0.12 0.12 0.12 0.13 0.11 0.09 0.10 0.08 0.07 0.14 0.22 0.14 0.12 0.06 0.09 0.12 0.15 0.07 0.07 0.02 0.03 0.04 0.02 0.02 0.03 0.09 0.07 0.05 0.15 0.23 0.85 0.45 1.24 1.14 0.79 0.81 0.94 1.00 1.19 0.91 0.79 0.89 0.99 0.94 0.98 1.15 1.00 1.01 1.03 1.26 1.65 1.56 1.45 1.34 1.34 1.49 1.45 1.32 1.22 1.22 1.36 1.32 1.30 1.26 1.13 1.16 1.09 1.11 1.02 1.08 0.99 0.81 0.76 0.72 0.81 0.73 0.85 0.72
0.04 0.03 0.03 0.07 0.05 0.09 0.16 0.17 0.10 0.04 0.02 0.02 0.01 0.01 0.00 0.01 0.03 0.07 0.11 0.11 0.09 0.10 0.11 0.18 0.18 0.13 0.12 0.12 0.15 0.24 0.16 0.13 0.10 0.13 0.20 0.08 0.12 0.12 0.11 0.07 0.06 0.01 0.04 0.07 0.13 0.14 0.38 0.28 0.79 0.54 0.84 0.76 1.21 0.88 1.13 0.69 1.59 1.02 0.83 0.91 0.73 0.76 0.73 0.77 1.12 0.82 0.75 0.86 0.99 0.87 1.16 1.09 0.94 0.99 1.23 1.02 1.15 1.08 1.12 1.12 1.22 1.21 1.23 1.26 1.31 1.45 1.33 1.28 1.29 1.12 1.04 0.86 0.79 0.68 0.81 0.71 0.66
0.02 0.00 0.07 0.03 0.05 0.04 0.03 0.02 0.04 0.03 0.05 0.07 0.06 0.06 0.04 0.03 0.03 0.05 0.04 0.05 0.10 0.13 0.13 0.09 0.10 0.06 0.06 0.05 0.15 0.12 0.16 0.12 0.06 0.08 0.08 0.06 0.05 0.04 0.05 0.21 0.22 0.14 0.08 0.09 0.16 0.13 0.07 0.22 0.37 0.49 0.62 1.16 1.20 1.19 1.44 1.05 0.74 0.94 1.12 0.92 0.98 1.04 1.13 1.20 0.83 0.78 0.73 0.89 0.86 1.22 1.03 1.07 1.03 0.71 0.82 0.88 1.06 1.07 1.11 1.15 1.10 0.87 1.03 1.15 1.16 1.22 1.21 1.38 1.13 1.09 0.99 0.92 0.78 0.95 0.89 0.72 0.80
0.00 0.00 0.03 0.04 0.00 0.00 0.00 0.01 0.00 0.00 0.00 0.00 0.00 0.00 0.00 0.00 0.00 0.00 0.00 0.01 0.00 0.00 0.00 0.01 0.01 0.01 0.02 0.04 0.05 0.10 0.10 0.09 0.03 0.06 0.04 0.02 0.02 0.01 0.01 0.02 0.01 0.05 0.15 0.11 0.06 0.10 0.15 0.19 0.23 0.32 0.40 0.74 0.91 1.01 0.77 0.65 0.94 1.00 0.82 0.80 0.95 0.92 1.09 1.21 1.35 1.27 1.50 1.56 1.86 1.28 1.02 0.80 0.69 0.50 0.43 0.60 0.85 0.85 0.73 0.85 0.97 1.18 1.26 1.12 1.24 1.26 1.27 1.19 1.12 0.99 0.81 0.75 0.74 0.68 0.80 0.90 0.87
0.00 0.00 0.01 0.01 0.01 0.00 0.00 0.00 0.00 0.00 0.00 0.00 0.00 0.00 0.00 0.00 0.00 0.00 0.00 0.00 0.00 0.00 0.01 0.01 0.00 0.01 0.01 0.01 0.05 0.05 0.06 0.08 0.02 0.05 0.01 0.02 0.02 0.01 0.01 0.01 0.02 0.02 0.04 0.11 0.06 0.08 0.09 0.16 0.19 0.22 0.37 0.32 0.61 1.04 1.12 1.10 0.96 0.89 0.75 0.90 1.26 1.78 1.89 1.97 2.23 2.45 2.19 1.35 1.13 0.96 0.87 0.70 0.51 0.39 0.52 0.52 0.59 0.44 0.44 0.79 0.68 0.80 0.91 1.25 1.19 1.23 1.07 1.00 0.99 0.89 0.79 0.74 0.70 0.58 0.57 0.61 0.92
0.00 0.00 0.00 0.00 0.00 0.00 0.00 0.00 0.00 0.00 0.00 0.00 0.00 0.00 0.00 0.00 0.00 0.00 0.00 0.00 0.00 0.00 0.00 0.01 0.00 0.00 0.00 0.00 0.01 0.04 0.01 0.03 0.00 0.01 0.01 0.01 0.03 0.02 0.02 0.03 0.03 0.01 0.02 0.04 0.03 0.02 0.09 0.10 0.12 0.14 0.20 0.30 0.32 0.55 0.90 1.23 1.82 2.09 2.37 2.61 2.44 2.28 2.22 1.95 2.75 3.00 3.14 2.85 2.11 1.18 0.74 0.51 0.48 0.55 0.50 0.53 0.50 0.43 0.40 0.45 0.47 0.60 0.74 0.73 0.74 1.05 1.19 1.08 1.12 1.11 0.92 0.83 0.73 0.65 0.59 0.63 0.86
0.00 0.00 0.00 0.00 0.00 0.00 0.00 0.00 0.00 0.00 0.00 0.00 0.00 0.00 0.00 0.00 0.00 0.00 0.00 0.00 0.00 0.00 0.00 0.00 0.00 0.00 0.00 0.00 0.01 0.02 0.00 0.00 0.00 0.00 0.01 0.01 0.02 0.04 0.04 0.04 0.04 0.02 0.01 0.03 0.03 0.03 0.05 0.05 0.16 0.19 0.29 0.17 0.41 0.34 0.43 0.56 1.36 1.16 1.60 1.64 1.95 2.39 2.67 3.27 2.72 2.61 2.48 1.98 1.60 1.29 0.99 0.84 0.78 0.76 0.63 0.59 0.46 0.43 0.35 0.33 0.37 0.51 0.46 0.58 0.72 0.64 0.69 0.80 1.05 0.97 0.98 0.89 0.72 0.65 0.70 0.62 0.58
0.00 0.00 0.00 0.00 0.00 0.00 0.00 0.00 0.00 0.00 0.00 0.00 0.00 0.00 0.00 0.00 0.00 0.00 0.00 0.00 0.00 0.00 0.00 0.00 0.00 0.00 0.00 0.00 0.00 0.00 0.00 0.00 0.00 0.00 0.01 0.01 0.01 0.04 0.05 0.04 0.04 0.03 0.02 0.02 0.03 0.03 0.04 0.05 0.03 0.04 0.07 0.22 0.24 0.20 0.26 0.27 0.39 0.76 0.71 0.82 1.18 1.26 1.57 2.15 2.86 2.73 2.38 2.06 1.79 1.82 1.66 1.52 1.29 1.07 0.95 0.71 0.54 0.43 0.37 0.32 0.23 0.27 0.31 0.42 0.50 0.62 0.68 0.72 0.75 0.89 1.02 0.89 0.70 0.68 0.74 0.81 0.81
0.00 0.00 0.00 0.00 0.00 0.00 0.00 0.00 0.00 0.00 0.00 0.00 0.00 0.00 0.00 0.00 0.00 0.00 0.00 0.00 0.00 0.00 0.00 0.00 0.00 0.00 0.00 0.00 0.00 0.00 0.00 0.00 0.00 0.00 0.00 0.01 0.01 0.01 0.02 0.03 0.02 0.02 0.02 0.01 0.01 0.01 0.01 0.01 0.02 0.04 0.02 0.12 0.34 0.28 0.53 0.19 0.20 0.38 0.48 0.59 0.64 0.67 0.69 1.10 0.99 1.26 1.45 1.83 1.85 1.55 1.43 1.33 1.13 1.01 0.90 0.56 0.48 0.28 0.28 0.21 0.20 0.19 0.22 0.31 0.34 0.28 0.43 0.50 0.61 0.75 0.78 0.88 0.81 0.73 0.74 0.78 1.07
0.00 0.00 0.00 0.00 0.00 0.00 0.00 0.00 0.00 0.00 0.00 0.00 0.00 0.00 0.00 0.00 0.00 0.00 0.00 0.00 0.00 0.00 0.00 0.00 0.00 0.00 0.00 0.00 0.00 0.00 0.00 0.00 0.00 0.00 0.00 0.00 0.00 0.00 0.00 0.01 0.02 0.01 0.00 0.01 0.00 0.00 0.01 0.01 0.02 0.02 0.02 0.06 0.04 0.11 0.10 0.16 0.43 0.82 0.40 0.65 0.41 0.57 0.45 0.44 0.52 0.56 0.59 0.56 0.60 0.74 0.63 0.64 0.57 0.49 0.37 0.28 0.22 0.15 0.15 0.17 0.17 0.15 0.13 0.13 0.16 0.20 0.29 0.29 0.33 0.43 0.54 0.65 0.76 0.74 0.76 0.67 0.92
0.00 0.00 0.00 0.00 0.00 0.00 0.00 0.00 0.00 0.00 0.00 0.00 0.00 0.00 0.00 0.00 0.00 0.00 0.00 0.00 0.00 0.00 0.00 0.00 0.00 0.00 0.00 0.00 0.00 0.00 0.00 0.00 0.00 0.00 0.00 0.00 0.00 0.00 0.00 0.00 0.00 0.00 0.00 0.00 0.00 0.00 0.00 0.01 0.03 0.04 0.02 0.07 0.08 0.43 0.21 0.06 0.08 0.15 0.16 0.24 0.50 0.35 0.47 0.36 0.42 0.27 0.27 0.27 0.15 0.16 0.26 0.23 0.21 0.23 0.16 0.16 0.20 0.27 0.28 0.17 0.15 0.13 0.14 0.14 0.13 0.13 0.20 0.26 0.27 0.33 0.41 0.50 0.61 0.73 0.80 0.79 0.76
0.00 0.00 0.00 0.00 0.00 0.00 0.00 0.00 0.00 0.00 0.00 0.00 0.00 0.00 0.00 0.00 0.00 0.00 0.00 0.00 0.00 0.00 0.00 0.00 0.00 0.00 0.00 0.00 0.00 0.00 0.00 0.00 0.00 0.00 0.00 0.00 0.00 0.00 0.00 0.01 0.01 0.00 0.00 0.01 0.01 0.01 0.00 0.01 0.02 0.05 0.05 0.04 0.05 0.12 0.24 0.22 0.44 0.25 0.41 0.76 0.22 0.29 0.47 0.44 0.41 0.44 0.55 0.39 0.19 0.20 0.13 0.37 0.48 0.32 0.28 0.25 0.20 0.22 0.18 0.22 0.16 0.14 0.10 0.09 0.11 0.10 0.10 0.09 0.15 0.20 0.24 0.30 0.39 0.52 0.63 0.79 0.82
0.00 0.00 0.00 0.00 0.00 0.00 0.00 0.00 0.00 0.00 0.00 0.00 0.00 0.00 0.00 0.00 0.00 0.00 0.00 0.00 0.00 0.00 0.00 0.00 0.00 0.00 0.00 0.00 0.00 0.00 0.00 0.00 0.00 0.00 0.00 0.00 0.00 0.00 0.00 0.00 0.00 0.00 0.00 0.00 0.03 0.00 0.01 0.01 0.02 0.03 0.07 0.08 0.13 0.11 0.14 0.29 0.13 0.13 0.24 0.23 0.32 0.46 0.44 0.58 0.72 0.76 1.03 0.91 0.82 0.47 0.33 0.33 0.31 0.45 0.34 0.30 0.21 0.27 0.29 0.36 0.26 0.18 0.11 0.09 0.10 0.14 0.07 0.09 0.18 0.13 0.14 0.32 0.20 0.31 0.45 0.58 0.61
0.00 0.00 0.00 0.00 0.00 0.00 0.00 0.00 0.00 0.00 0.00 0.00 0.00 0.00 0.00 0.00 0.00 0.00 0.00 0.00 0.00 0.00 0.00 0.00 0.00 0.00 0.00 0.00 0.00 0.00 0.00 0.00 0.00 0.00 0.00 0.00 0.00 0.00 0.00 0.00 0.01 0.00 0.00 0.00 0.00 0.01 0.00 0.01 0.01 0.13 0.06 0.08 0.12 0.16 0.17 0.15 0.18 0.49 0.26 0.50 0.19 0.25 0.16 0.52 0.42 0.70 0.48 0.30 0.47 0.51 0.36 0.37 0.59 0.44 0.36 0.21 0.17 0.36 0.35 0.37 0.38 0.23 0.13 0.13 0.54 0.23 0.12 0.29 0.09 0.12 0.14 0.11 0.10 0.23 0.31 0.49 0.62
0.00 0.00 0.00 0.00 0.00 0.00 0.00 0.00 0.00 0.00 0.00 0.00 0.00 0.00 0.00 0.00 0.00 0.00 0.00 0.00 0.00 0.00 0.00 0.00 0.00 0.00 0.00 0.00 0.00 0.00 0.00 0.00 0.00 0.00 0.00 0.00 0.00 0.00 0.00 0.00 0.00 0.00 0.00 0.00 0.00 0.01 0.01 0.00 0.01 0.09 0.16 0.10 0.14 0.35 0.40 0.41 0.20 0.16 0.08 0.18 0.30 0.62 0.61 0.49 0.48 0.66 0.68 0.78 0.63 0.65 0.70 0.72 0.86 0.68 0.52 0.46 0.43 0.29 0.34 0.43 0.35 0.50 0.52 0.38 0.30 0.24 0.41 0.16 0.15 0.15 0.11 0.11 0.08 0.11 0.12 0.24 0.33
0.00 0.00 0.00 0.00 0.00 0.00 0.00 0.00 0.00 0.00 0.00 0.00 0.00 0.00 0.00 0.00 0.00 0.00 0.00 0.00 0.00 0.00 0.00 0.00 0.00 0.00 0.00 0.00 0.00 0.00 0.00 0.00 0.00 0.00 0.00 0.00 0.00 0.00 0.00 0.00 0.00 0.00 0.00 0.00 0.00 0.00 0.01 0.02 0.01 0.03 0.03 0.10 0.18 0.23 0.30 0.34 0.26 0.37 0.53 0.47 0.81 0.58 0.42 0.42 0.40 0.85 0.93 0.77 0.66 0.74 0.72 1.00 1.02 0.71 0.68 0.54 0.46 0.62 0.53 0.71 0.57 0.54 0.47 0.39 0.35 0.28 0.25 0.22 0.21 0.21 0.19 0.18 0.12 0.09 0.08 0.14 0.17
0.00 0.00 0.00 0.00 0.00 0.00 0.00 0.00 0.00 0.00 0.00 0.00 0.00 0.00 0.00 0.00 0.00 0.00 0.00 0.00 0.00 0.00 0.00 0.00 0.00 0.00 0.00 0.00 0.00 0.00 0.00 0.00 0.00 0.00 0.00 0.00 0.00 0.00 0.00 0.00 0.00 0.00 0.00 0.00 0.00 0.00 0.00 0.01 0.01 0.02 0.03 0.07 0.13 0.10 0.12 0.27 0.33 0.40 0.52 0.43 0.47 0.46 0.56 0.45 0.73 0.58 0.45 0.52 0.68 0.44 0.44 0.55 0.80 0.97 0.87 1.00 0.64 0.59 0.53 0.39 0.36 0.39 0.43 0.52 0.39 0.47 0.37 0.39 0.32 0.35 0.25 0.28 0.27 0.24 0.17 0.11 0.11
0.00 0.00 0.00 0.00 0.00 0.00 0.00 0.00 0.00 0.00 0.00 0.00 0.00 0.00 0.00 0.00 0.00 0.00 0.00 0.00 0.00 0.00 0.00 0.00 0.00 0.00 0.00 0.00 0.00 0.00 0.00 0.00 0.00 0.00 0.00 0.00 0.00 0.00 0.00 0.00 0.00 0.00 0.00 0.00 0.00 0.00 0.01 0.00 0.01 0.02 0.03 0.05 0.06 0.08 0.12 0.22 0.15 0.19 0.42 0.85 0.65 1.25 1.35 1.17 1.20 0.84 0.85 0.83 0.71 0.98 0.67 0.59 0.81 0.53 0.66 0.60 0.45 0.48 0.41 0.46 0.48 0.43 0.48 0.36 0.40 0.43 0.59 0.26 0.37 0.36 0.23 0.38 0.19 0.23 0.23 0.25 0.23
0.00 0.00 0.00 0.00 0.00 0.00 0.00 0.00 0.00 0.00 0.00 0.00 0.00 0.00 0.00 0.00 0.00 0.00 0.00 0.00 0.00 0.00 0.00 0.00 0.00 0.00 0.00 0.00 0.00 0.00 0.00 0.00 0.00 0.00 0.00 0.00 0.00 0.00 0.00 0.00 0.00 0.00 0.00 0.00 0.00 0.00 0.01 0.00 0.01 0.01 0.03 0.03 0.06 0.09 0.12 0.16 0.16 0.24 0.31 0.38 0.46 0.40 0.42 0.62 0.78 1.03 0.89 1.18 1.15 0.97 0.92 0.82 0.48 0.69 0.61 1.01 0.86 0.80 0.66 0.55 0.61 0.58 0.57 0.50 0.39 0.39 0.39 0.40 0.32 0.28 0.28 0.23 0.24 0.21 0.18 0.21 0.20
0.00 0.00 0.00 0.00 0.00 0.00 0.00 0.00 0.00 0.00 0.00 0.00 0.00 0.00 0.00 0.00 0.00 0.00 0.00 0.00 0.00 0.00 0.00 0.00 0.00 0.00 0.00 0.00 0.00 0.00 0.00 0.00 0.00 0.00 0.00 0.00 0.00 0.00 0.00 0.00 0.00 0.00 0.00 0.00 0.00 0.00 0.00 0.00 0.00 0.01 0.01 0.02 0.09 0.11 0.10 0.15 0.18 0.25 0.29 0.22 0.54 0.48 0.50 0.45 0.46 0.49 0.50 0.80 0.65 0.55 0.54 0.49 0.41 0.56 0.63 0.56 0.47 0.72 0.70 0.61 0.66 0.72 0.72 0.61 0.66 0.55 0.52 0.57 0.52 0.40 0.40 0.33 0.25 0.21 0.22 0.20 0.23
0.00 0.00 0.00 0.00 0.00 0.00 0.00 0.00 0.00 0.00 0.00 0.00 0.00 0.00 0.00 0.00 0.00 0.00 0.00 0.00 0.00 0.00 0.00 0.00 0.00 0.00 0.00 0.00 0.00 0.00 0.00 0.00 0.00 0.00 0.00 0.00 0.00 0.00 0.00 0.00 0.00 0.00 0.00 0.00 0.00 0.00 0.00 0.00 0.00 0.01 0.00 0.01 0.07 0.10 0.14 0.14 0.17 0.24 0.34 0.47 0.44 0.27 0.40 0.54 0.38 0.35 0.40 0.52 0.61 0.44 0.56 0.80 0.51 0.53 0.52 0.58 0.43 0.38 0.45 0.49 0.52 0.59 0.45 0.50 0.50 0.54 0.64 0.62 0.63 0.56 0.55 0.58 0.47 0.36 0.29 0.26 0.20
0.00 0.00 0.00 0.00 0.00 0.00 0.00 0.00 0.00 0.00 0.00 0.00 0.00 0.00 0.00 0.00 0.00 0.00 0.00 0.00 0.00 0.00 0.00 0.00 0.00 0.00 0.00 0.00 0.00 0.00 0.00 0.00 0.00 0.00 0.00 0.00 0.00 0.00 0.00 0.00 0.00 0.00 0.00 0.00 0.00 0.00 0.00 0.00 0.00 0.00 0.01 0.01 0.02 0.06 0.09 0.12 0.17 0.28 0.42 0.28 0.31 0.51 0.56 0.67 0.47 0.47 0.58 0.50 0.64 0.84 0.69 0.67 0.76 0.52 0.59 0.49 0.42 0.46 0.43 0.39 0.32 0.44 0.55 0.55 0.65 0.53 0.54 0.50 0.53 0.53 0.62 0.66 0.61 0.45 0.40 0.35 0.30
0.00 0.00 0.00 0.00 0.00 0.00 0.00 0.00 0.00 0.00 0.00 0.00 0.00 0.00 0.00 0.00 0.00 0.00 0.00 0.00 0.00 0.00 0.00 0.00 0.00 0.00 0.00 0.00 0.00 0.00 0.00 0.00 0.00 0.00 0.00 0.00 0.00 0.00 0.00 0.00 0.00 0.00 0.00 0.00 0.00 0.00 0.00 0.01 0.00 0.00 0.01 0.01 0.01 0.02 0.04 0.03 0.05 0.19 0.29 0.54 0.39 0.53 0.52 0.31 0.44 0.33 0.27 0.27 0.36 0.46 0.63 0.69 0.73 0.97 0.75 0.59 0.71 0.62 0.46 0.73 0.89 0.70 0.69 0.60 0.88 0.83 0.68 0.51 0.43 0.41 0.40 0.49 0.64 0.67 0.55 0.52 0.45
0.00 0.00 0.00 0.00 0.00 0.00 0.00 0.00 0.00 0.00 0.00 0.00 0.00 0.00 0.00 0.00 0.00 0.00 0.00 0.00 0.00 0.00 0.00 0.00 0.00 0.00 0.00 0.00 0.00 0.00 0.00 0.00 0.00 0.00 0.00 0.00 0.00 0.00 0.00 0.00 0.00 0.00 0.00 0.00 0.00 0.00 0.00 0.00 0.01 0.00 0.00 0.01 0.02 0.03 0.04 0.05 0.12 0.17 0.26 0.21 0.36 0.45 0.59 0.65 0.48 0.35 0.30 0.31 0.42 0.34 0.30 0.47 0.51 0.66 0.65 0.58 0.46 0.41 0.36 0.36 0.41 0.34 0.46 0.46 0.63 0.62 0.73 0.65 0.69 0.50 0.45 0.38 0.37 0.37 0.48 0.46 0.46
0.00 0.00 0.00 0.00 0.00 0.00 0.00 0.00 0.00 0.00 0.00 0.00 0.00 0.00 0.00 0.00 0.00 0.00 0.00 0.00 0.00 0.00 0.00 0.00 0.00 0.00 0.00 0.00 0.00 0.00 0.00 0.00 0.00 0.00 0.00 0.00 0.00 0.00 0.00 0.00 0.00 0.00 0.00 0.00 0.00 0.00 0.00 0.00 0.01 0.00 0.00 0.02 0.02 0.05 0.06 0.06 0.20 0.16 0.17 0.17 0.14 0.13 0.17 0.23 0.39 0.38 0.61 0.32 0.37 0.67 0.44 0.51 0.44 0.54 0.66 0.66 0.50 0.46 0.40 0.37 0.47 0.45 0.45 0.40 0.37 0.39 0.40 0.52 0.57 0.61 0.56 0.49 0.52 0.45 0.37 0.30 0.46
0.00 0.00 0.00 0.00 0.00 0.00 0.00 0.00 0.00 0.00 0.00 0.00 0.00 0.00 0.00 0.00 0.00 0.00 0.00 0.00 0.00 0.00 0.00 0.00 0.00 0.00 0.00 0.00 0.00 0.00 0.00 0.00 0.10 0.00 0.00 0.00 0.00 0.00 0.00 0.00 0.00 0.00 0.00 0.00 0.00 0.00 0.00 0.00 0.01 0.01 0.02 0.03 0.02 0.02 0.04 0.06 0.07 0.10 0.09 0.12 0.14 0.16 0.18 0.26 0.20 0.23 0.25 0.26 0.69 0.55 0.48 0.57 0.92 0.55 0.70 0.81 0.85 0.80 0.63 0.62 0.76 0.43 0.48 0.35 0.36 0.33 0.37 0.39 0.50 0.50 0.49 0.39 0.37 0.41 0.45 0.45 0.40
0.00 0.00 0.00 0.00 0.00 0.00 0.00 0.00 0.00 0.00 0.00 0.00 0.00 0.00 0.00 0.00 0.00 0.00 0.00 0.00 0.00 0.00 0.00 0.00 0.00 0.00 0.00 0.00 0.00 0.00 0.00 0.00 0.02 0.01 0.00 0.00 0.00 0.00 0.00 0.00 0.00 0.00 0.00 0.00 0.00 0.00 0.00 0.00 0.00 0.01 0.02 0.02 0.02 0.03 0.01 0.02 0.05 0.06 0.06 0.06 0.04 0.05 0.03 0.12 0.13 0.07 0.14 0.25 0.39 0.26 0.38 0.53 0.69 0.43 0.47 0.83 0.64 0.70 0.71 0.73 0.74 0.63 0.57 0.48 0.48 0.39 0.37 0.46 0.45 0.53 0.49 0.60 0.50 0.48 0.40 0.43 0.54
0.00 0.00 0.00 0.00 0.00 0.00 0.00 0.00 0.00 0.00 0.00 0.00 0.00 0.00 0.00 0.00 0.00 0.00 0.00 0.00 0.00 0.00 0.00 0.00 0.00 0.00 0.00 0.00 0.00 0.00 0.00 0.00 0.00 0.01 0.00 0.00 0.00 0.00 0.00 0.00 0.00 0.00 0.00 0.00 0.00 0.00 0.00 0.00 0.00 0.01 0.03 0.05 0.07 0.06 0.05 0.04 0.03 0.07 0.08 0.06 0.09 0.15 0.17 0.21 0.12 0.11 0.26 0.49 0.31 0.39 0.28 0.31 0.34 0.34 0.48 0.43 0.53 0.49 0.53 0.58 0.63 0.58 0.52 0.43 0.41 0.40 0.44 0.46 0.46 0.48 0.53 0.55 0.54 0.55 0.44 0.29 0.29
0.00 0.00 0.00 0.00 0.00 0.00 0.00 0.00 0.00 0.00 0.00 0.00 0.00 0.00 0.00 0.00 0.00 0.00 0.00 0.00 0.00 0.00 0.00 0.00 0.00 0.00 0.00 0.00 0.00 0.00 0.00 0.01 0.01 0.01 0.01 0.01 0.01 0.00 0.00 0.00 0.00 0.00 0.00 0.00 0.00 0.00 0.00 0.00 0.00 0.00 0.01 0.03 0.07 0.07 0.07 0.07 0.05 0.04 0.06 0.13 0.12 0.17 0.36 0.19 0.44 0.11 0.21 0.13 0.26 0.44 0.51 0.27 0.37 0.47 0.55 0.65 0.61 0.61 0.82 0.61 0.56 0.59 0.51 0.46 0.42 0.41 0.47 0.52 0.53 0.51 0.50 0.51 0.53 0.50 0.52 0.46 0.46
0.00 0.00 0.00 0.00 0.00 0.00 0.00 0.00 0.00 0.00 0.00 0.00 0.00 0.00 0.00 0.00 0.00 0.00 0.00 0.00 0.00 0.00 0.00 0.00 0.00 0.00 0.00 0.00 0.00 0.01 0.01 0.01 0.02 0.01 0.01 0.01 0.01 0.00 0.00 0.00 0.00 0.00 0.00 0.00 0.00 0.00 0.00 0.00 0.00 0.01 0.01 0.01 0.03 0.06 0.06 0.05 0.04 0.04 0.03 0.04 0.07 0.11 0.10 0.11 0.21 0.08 0.15 0.25 0.12 0.10 0.09 0.20 0.24 0.27 0.16 0.19 0.25 0.34 0.48 0.54 0.60 0.59 0.59 0.60 0.49 0.44 0.42 0.42 0.47 0.49 0.49 0.51 0.58 0.65 0.58 0.51 0.43
0.00 0.00 0.00 0.00 0.00 0.00 0.00 0.00 0.00 0.00 0.00 0.00 0.00 0.00 0.00 0.00 0.00 0.00 0.00 0.00 0.00 0.00 0.00 0.00 0.00 0.00 0.00 0.00 0.00 0.01 0.01 0.02 0.02 0.01 0.01 0.01 0.01 0.01 0.00 0.00 0.00 0.00 0.00 0.00 0.00 0.00 0.00 0.00 0.00 0.01 0.02 0.02 0.02 0.04 0.07 0.07 0.08 0.10 0.13 0.12 0.11 0.07 0.08 0.08 0.09 0.08 0.07 0.07 0.07 0.11 0.13 0.13 0.16 0.17 0.21 0.20 0.17 0.23 0.29 0.37 0.45 0.42 0.43 0.50 0.53 0.54 0.49 0.43 0.41 0.45 0.47 0.47 0.51 0.58 0.56 0.49 0.46
0.00 0.00 0.00 0.00 0.00 0.00 0.00 0.00 0.00 0.00 0.00 0.00 0.00 0.00 0.00 0.00 0.00 0.00 0.00 0.00 0.00 0.00 0.00 0.00 0.10 0.00 0.00 0.00 0.01 0.01 0.01 0.01 0.01 0.01 0.01 0.01 0.01 0.01 0.00 0.00 0.00 0.00 0.00 0.00 0.00 0.00 0.00 0.00 0.00 0.01 0.00 0.02 0.03 0.02 0.02 0.03 0.05 0.08 0.09 0.07 0.07 0.07 0.07 0.05 0.06 0.18 0.12 0.07 0.24 0.16 0.10 0.09 0.24 0.30 0.37 0.18 0.24 0.46 0.21 0.22 0.29 0.36 0.40 0.43 0.46 0.53 0.54 0.55 0.53 0.50 0.51 0.55 0.48 0.43 0.50 0.43 0.38
0.00 0.00 0.00 0.00 0.00 0.00 0.00 0.00 0.00 0.00 0.00 0.00 0.00 0.00 0.00 0.00 0.00 0.00 0.00 0.00 0.00 0.00 0.00 0.01 0.09 0.04 0.00 0.01 0.01 0.01 0.01 0.01 0.01 0.01 0.01 0.01 0.01 0.00 0.00 0.00 0.00 0.00 0.00 0.00 0.00 0.00 0.00 0.00 0.00 0.00 0.00 0.00 0.00 0.02 0.03 0.03 0.04 0.06 0.11 0.14 0.09 0.07 0.07 0.06 0.14 0.11 0.07 0.11 0.10 0.10 0.02 0.03 0.01 0.01 0.03 0.03 0.04 0.08 0.20 0.26 0.29 0.28 0.27 0.29 0.30 0.34 0.38 0.38 0.40 0.40 0.48 0.45 0.52 0.53 0.54 0.59 0.48
0.00 0.00 0.00 0.00 0.00 0.00 0.00 0.00 0.00 0.00 0.00 0.00 0.00 0.00 0.00 0.00 0.00 0.00 0.00 0.00 0.00 0.00 0.02 0.01 0.01 0.03 0.03 0.01 0.00 0.00 0.01 0.01 0.01 0.01 0.01 0.01 0.01 0.00 0.00 0.00 0.00 0.00 0.00 0.00 0.00 0.00 0.00 0.00 0.00 0.00 0.00 0.00 0.00 0.00 0.01 0.03 0.04 0.04 0.05 0.08 0.09 0.09 0.09 0.09 0.08 0.07 0.06 0.06 0.06 0.12 0.03 0.02 0.05 0.02 0.02 0.02 0.02 0.02 0.03 0.05 0.11 0.17 0.25 0.30 0.29 0.28 0.25 0.26 0.31 0.36 0.37 0.40 0.39 0.43 0.53 0.66 0.60
0.00 0.00 0.00 0.00 0.00 0.00 0.00 0.00 0.00 0.00 0.00 0.00 0.00 0.00 0.00 0.00 0.00 0.00 0.00 0.00 0.01 0.02 0.02 0.12 0.01 0.04 0.02 0.01 0.01 0.01 0.01 0.01 0.01 0.01 0.01 0.00 0.00 0.00 0.00 0.00 0.00 0.00 0.00 0.01 0.01 0.00 0.00 0.00 0.01 0.01 0.00 0.00 0.00 0.00 0.00 0.01 0.02 0.03 0.04 0.05 0.06 0.06 0.06 0.08 0.08 0.07 0.04 0.02 0.01 0.01 0.02 0.02 0.05 0.05 0.04 0.03 0.02 0.00 0.01 0.00 0.03 0.03 0.06 0.13 0.19 0.25 0.26 0.27 0.28 0.26 0.29 0.31 0.35 0.32 0.32 0.39 0.46
0.00 0.00 0.00 0.00 0.00 0.00 0.00 0.00 0.00 0.00 0.00 0.00 0.00 0.00 0.00 0.00 0.00 0.00 0.00 0.01 0.01 0.02 0.05 0.03 0.02 0.02 0.02 0.02 0.01 0.01 0.01 0.01 0.01 0.01 0.00 0.00 0.00 0.00 0.00 0.00 0.01 0.01 0.01 0.01 0.01 0.01 0.01 0.01 0.01 0.00 0.00 0.00 0.00 0.01 0.01 0.01 0.03 0.03 0.04 0.05 0.05 0.06 0.05 0.04 0.05 0.07 0.06 0.05 0.03 0.02 0.01 0.00 0.01 0.01 0.02 0.02 0.02 0.03 0.02 0.03 0.02 0.01 0.01 0.04 0.09 0.11 0.14 0.17 0.21 0.24 0.26 0.27 0.30 0.31 0.31 0.33 0.38
0.00 0.00 0.00 0.00 0.00 0.00 0.00 0.00 0.00 0.00 0.00 0.00 0.00 0.00 0.00 0.00 0.00 0.00 0.00 0.00 0.00 0.01 0.03 0.04 0.02 0.01 0.02 0.01 0.00 0.00 0.00 0.00 0.00 0.00 0.00 0.00 0.00 0.00 0.01 0.02 0.03 0.03 0.02 0.02 0.01 0.01 0.01 0.01 0.01 0.01 0.00 0.00 0.00 0.01 0.01 0.04 0.03 0.02 0.03 0.06 0.07 0.06 0.07 0.06 0.06 0.04 0.03 0.04 0.05 0.04 0.03 0.02 0.02 0.03 0.03 0.03 0.03 0.02 0.02 0.02 0.02 0.02 0.04 0.04 0.03 0.03 0.07 0.10 0.14 0.18 0.22 0.26 0.34 0.33 0.36 0.37 0.39
0.00 0.00 0.00 0.00 0.00 0.00 0.00 0.00 0.00 0.00 0.00 0.00 0.00 0.00 0.00 0.00 0.00 0.00 0.01 0.01 0.00 0.05 0.01 0.02 0.02 0.00 0.01 0.01 0.00 0.00 0.00 0.00 0.00 0.00 0.00 0.00 0.01 0.02 0.03 0.04 0.04 0.03 0.03 0.02 0.02 0.01 0.01 0.01 0.01 0.01 0.01 0.01 0.01 0.01 0.01 0.01 0.01 0.02 0.04 0.04 0.03 0.03 0.04 0.04 0.03 0.02 0.05 0.03 0.03 0.03 0.04 0.05 0.06 0.07 0.04 0.06 0.09 0.05 0.02 0.01 0.01 0.01 0.01 0.01 0.01 0.02 0.03 0.07 0.08 0.12 0.16 0.22 0.28 0.30 0.33 0.36 0.40
0.00 0.00 0.00 0.00 0.00 0.00 0.00 0.00 0.00 0.00 0.00 0.00 0.00 0.00 0.00 0.00 0.00 0.01 0.00 0.00 0.04 0.02 0.01 0.02 0.01 0.01 0.02 0.01 0.00 0.00 0.00 0.00 0.00 0.00 0.01 0.02 0.04 0.05 0.05 0.05 0.04 0.04 0.03 0.03 0.02 0.02 0.01 0.01 0.01 0.01 0.01 0.02 0.01 0.02 0.02 0.02 0.04 0.03 0.03 0.02 0.03 0.03 0.03 0.03 0.03 0.02 0.02 0.02 0.03 0.04 0.04 0.03 0.04 0.04 0.04 0.05 0.06 0.06 0.09 0.06 0.03 0.03 0.02 0.02 0.01 0.01 0.02 0.02 0.04 0.06 0.08 0.13 0.20 0.25 0.29 0.32 0.38
0.00 0.00 0.00 0.00 0.00 0.00 0.01 0.00 0.00 0.00 0.00 0.00 0.00 0.00 0.00 0.00 0.01 0.02 0.00 0.01 0.04 0.07 0.03 0.01 0.01 0.01 0.01 0.00 0.00 0.00 0.00 0.00 0.01 0.01 0.03 0.04 0.05 0.05 0.05 0.05 0.05 0.04 0.03 0.03 0.02 0.01 0.01 0.01 0.01 0.01 0.01 0.02 0.02 0.03 0.03 0.05 0.03 0.02 0.03 0.04 0.04 0.04 0.03 0.03 0.02 0.02 0.02 0.03 0.03 0.03 0.02 0.02 0.02 0.03 0.03 0.04 0.02 0.03 0.04 0.04 0.06 0.10 0.05 0.04 0.03 0.02 0.02 0.02 0.03 0.05 0.06 0.07 0.12 0.14 0.17 0.24 0.31
0.00 0.00 0.00 0.00 0.00 0.00 0.01 0.00 0.01 0.00 0.00 0.00 0.00 0.00 0.00 0.00 0.00 0.00 0.01 0.05 0.02 0.15 0.09 0.03 0.01 0.01 0.00 0.00 0.00 0.00 0.00 0.02 0.02 0.03 0.04 0.05 0.05 0.05 0.05 0.05 0.05 0.04 0.03 0.02 0.01 0.01 0.01 0.02 0.01 0.02 0.02 0.02 0.02 0.02 0.03 0.03 0.02 0.03 0.04 0.04 0.03 0.02 0.02 0.02 0.03 0.03 0.02 0.02 0.01 0.01 0.02 0.02 0.02 0.02 0.03 0.02 0.03 0.04 0.05 0.06 0.15 0.14 0.13 0.13 0.19 0.14 0.05 0.06 0.04 0.05 0.06 0.07 0.07 0.08 0.12 0.15 0.20
0.00 0.00 0.00 0.00 0.00 0.00 0.00 0.00 0.00 0.00 0.00 0.00 0.00 0.00 0.00 0.00 0.00 0.00 0.00 0.02 0.04 0.09 0.04 0.03 0.01 0.01 0.00 0.00 0.00 0.00 0.01 0.02 0.03 0.04 0.05 0.06 0.06 0.05 0.05 0.04 0.03 0.02 0.01 0.01 0.01 0.02 0.02 0.02 0.02 0.02 0.04 0.02 0.02 0.02 0.02 0.02 0.02 0.04 0.03 0.02 0.02 0.02 0.02 0.02 0.02 0.01 0.01 0.01 0.01 0.03 0.04 0.03 0.02 0.02 0.03 0.03 0.03 0.03 0.03 0.04 0.05 0.04 0.04 0.10 0.07 0.14 0.10 0.11 0.09 0.12 0.11 0.09 0.10 0.08 0.09 0.12 0.15
0.00 0.00 0.00 0.00 0.00 0.00 0.00 0.00 0.00 0.00 0.01 0.01 0.00 0.00 0.00 0.00 0.00 0.01 0.00 0.06 0.04 0.09 0.01 0.03 0.02 0.11 0.01 0.01 0.01 0.01 0.02 0.04 0.05 0.07 0.08 0.09 0.07 0.05 0.03 0.02 0.02 0.02 0.02 0.02 0.02 0.02 0.02 0.02 0.02 0.02 0.02 0.01 0.02 0.02 0.02 0.02 0.03 0.03 0.03 0.02 0.04 0.01 0.01 0.01 0.02 0.03 0.02 0.02 0.02 0.02 0.02 0.02 0.02 0.03 0.03 0.03 0.03 0.04 0.04 0.05 0.06 0.10 0.06 0.12 0.11 0.11 0.15 0.12 0.06 0.09 0.10 0.11 0.13 0.12 0.14 0.13 0.11
0.00 0.00 0.00 0.00 0.00 0.00 0.00 0.01 0.01 0.02 0.04 0.03 0.01 0.01 0.00 0.00 0.01 0.00 0.02 0.04 0.03 0.05 0.06 0.02 0.05 0.04 0.01 0.01 0.02 0.03 0.05 0.07 0.08 0.09 0.09 0.07 0.04 0.03 0.02 0.02 0.02 0.02 0.02 0.02 0.02 0.03 0.02 0.03 0.02 0.01 0.02 0.03 0.04 0.05 0.04 0.04 0.02 0.02 0.02 0.02 0.02 0.01 0.02 0.02 0.02 0.03 0.02 0.02 0.02 0.03 0.01 0.02 0.03 0.03 0.04 0.05 0.04 0.05 0.06 0.06 0.07 0.07 0.09 0.08 0.09 0.08 0.11 0.07 0.18 0.13 0.13 0.11 0.12 0.13 0.14 0.18 0.16
0.00 0.00 0.00 0.00 0.00 0.00 0.00 0.00 0.03 0.05 0.09 0.06 0.03 0.01 0.01 0.01 0.01 0.01 0.03 0.08 0.05 0.04 0.04 0.03 0.02 0.02 0.02 0.03 0.05 0.06 0.08 0.10 0.10 0.08 0.07 0.05 0.03 0.02 0.02 0.02 0.02 0.02 0.02 0.03 0.03 0.03 0.02 0.02 0.01 0.02 0.03 0.03 0.03 0.05 0.04 0.03 0.02 0.02 0.02 0.01 0.01 0.02 0.02 0.02 0.02 0.03 0.03 0.02 0.02 0.01 0.03 0.02 0.03 0.03 0.04 0.05 0.06 0.07 0.08 0.09 0.08 0.09 0.18 0.11 0.10 0.09 0.07 0.06 0.08 0.11 0.08 0.08 0.07 0.08 0.10 0.15 0.16
0.00 0.00 0.00 0.00 0.00 0.00 0.00 0.00 0.00 0.01 0.05 0.08 0.09 0.05 0.03 0.01 0.01 0.01 0.11 0.14 0.04 0.04 0.04 0.03 0.03 0.04 0.04 0.05 0.06 0.08 0.09 0.09 0.08 0.07 0.06 0.04 0.02 0.01 0.01 0.02 0.03 0.03 0.03 0.03 0.02 0.02 0.02 0.02 0.02 0.04 0.03 0.03 0.04 0.04 0.03 0.02 0.02 0.02 0.01 0.01 0.01 0.02 0.02 0.02 0.02 0.03 0.05 0.03 0.03 0.06 0.09 0.06 0.05 0.04 0.06 0.06 0.07 0.07 0.08 0.09 0.09 0.09 0.10 0.26 0.14 0.11 0.16 0.08 0.07 0.06 0.07 0.06 0.07 0.07 0.07 0.09 0.09
0.00 0.00 0.00 0.00 0.00 0.00 0.00 0.00 0.01 0.02 0.05 0.07 0.09 0.11 0.05 0.01 0.01 0.01 0.14 0.03 0.03 0.02 0.03 0.04 0.04 0.04 0.04 0.06 0.07 0.08 0.08 0.07 0.06 0.04 0.03 0.02 0.01 0.01 0.02 0.02 0.03 0.02 0.02 0.02 0.02 0.02 0.02 0.02 0.03 0.03 0.04 0.06 0.04 0.03 0.02 0.01 0.02 0.01 0.01 0.02 0.02 0.01 0.02 0.03 0.02 0.03 0.04 0.05 0.07 0.11 0.06 0.08 0.13 0.11 0.06 0.06 0.06 0.07 0.08 0.09 0.10 0.10 0.09 0.15 0.10 0.13 0.08 0.09 0.11 0.09 0.09 0.08 0.08 0.08 0.08 0.08 0.09
0.00 0.00 0.00 0.00 0.00 0.00 0.01 0.03 0.01 0.02 0.04 0.06 0.10 0.15 0.09 0.02 0.00 0.03 0.02 0.02 0.01 0.02 0.03 0.04 0.04 0.04 0.04 0.05 0.06 0.06 0.05 0.03 0.02 0.02 0.01 0.01 0.01 0.02 0.03 0.03 0.02 0.02 0.02 0.01 0.03 0.02 0.03 0.04 0.03 0.05 0.04 0.04 0.03 0.02 0.02 0.02 0.02 0.02 0.02 0.02 0.02 0.02 0.03 0.03 0.04 0.04 0.05 0.06 0.14 0.13 0.13 0.09 0.13 0.06 0.11 0.07 0.08 0.09 0.09 0.10 0.11 0.11 0.10 0.10 0.16 0.13 0.10 0.11 0.11 0.10 0.10 0.11 0.13 0.16 0.11 0.12 0.10